User: anonymous   Login
Location: Bushey
(51.6333°N, 0.3667°W)
Time: 02:19:16
(UTC+00:00)
Language:

Gbstr 26 Del rocket - Orbit

View from above orbital plane
View from above orbital plane
View from above satellite
View from above satellite

Ground track
Ground track

The orbit data is extracted from the following two-line orbital elements,

1 25876U 99041E   21136.31884939 -.00000127  00000-0  17760-4 0  9995
2 25876  51.7677  76.1631 0530426 234.9549 120.0522 14.04570289115406
Epoch (UTC): 16 May 2021 07:39:08
Eccentricity: 0.0530426
inclination: 51.7677°
perigee height: 493 km
apogee height: 1263 km
right ascension of ascending node: 76.1631°
argument of perigee: 234.9549°
revolutions per day: 14.04570289
mean anomaly at epoch: 120.0522°
orbit number at epoch: 11540

The dashed part of the orbit path shows where the satellite is in the earth's shadow,  

DLR